{"data":{"norad_id":66130,"intl_designator":"2025-237S","name":"STARLINK-35637","alt_names":[],"object_type":"PAYLOAD","status":"ACTIVE","operator":null,"country":"US","launch_date":"2025-10-22","launch_site_code":"AFWTR","launch_vehicle":null,"mission":null,"orbit_class":"UNKNOWN","rcs_meters":null,"size_class":null,"mass_kg":null,"dimensions":null,"purposes":["comms"],"wikipedia_slug":null,"has_3d_model":false,"image_url":null,"decayed_at":null,"tle_current":{"epoch":"2026-05-25T03:11:48.338304Z","epoch_age_seconds":64329,"freshness":"FRESH","line1":"1 66130U 25237S   26145.13319836  .00017575  00000+0  60412-3 0  9997","line2":"2 66130  53.1590  44.6007 0001112 101.2517 258.8609 15.30199494 34318","mean_motion":15.30199494,"eccentricity":0.0001112,"inclination_deg":53.159,"raan_deg":44.6007,"arg_perigee_deg":101.2517,"mean_anomaly_deg":258.8609,"bstar":0.00060412,"rev_number":3431,"period_min":94.105376824808,"perigee_km":474.45448732641,"apogee_km":475.97867316266,"semimajor_km":6853.3535802445,"source":"CELESTRAK","updated_at":"2026-05-25T13:38:21.065302Z"}}}